Date String (YYYY-MM-DD hh:mm:ss) UTC,Instrument flags,Ambient pressure (hPa),Sample flow (lpm),Bypass flow (lpm),Sample temperature (°C),Ambient temperature (°C),ASC tube jacket temperature (°C),LED temperature (°C),Box temperature (°C),Sample RH (%),Span deviation,Mass concentration (μg/m³),Mass concentration (μg/m³),Mass concentration (μg/m³)
DateTimeUTC,F1_M11,P_M11,Q1_M11,Q2_M11,T1_M11,T2_M11,T3_M11,T4_M11,T5_M11,U1_M11,ZSPAN_M11,X2_M11,X0_M11,X1_M11
2021-09-17 17:00:00,,0835.8,5.00,0.00,29.8,29.1,00.0,38.8,31.6,17.5,0000.0,0005.33,0014.10,0004.33
2021-09-17 17:01:00,,0835.8,4.99,0.00,29.9,29.2,00.0,38.8,31.6,17.4,0000.0,0005.38,0012.46,0004.36
2021-09-17 17:02:00,,0835.7,5.01,0.00,29.9,29.2,00.0,38.9,31.6,17.3,0000.7,0005.43,0013.00,0004.39
2021-09-17 17:03:00,,0835.7,5.00,0.00,29.9,29.2,00.0,38.9,31.7,17.4,0000.3,0005.48,0013.50,0004.42
2021-09-17 17:04:00,,0835.8,4.99,0.00,29.9,29.2,00.0,38.9,31.7,17.5,0000.0,0005.51,0013.35,0004.46
2021-09-17 17:05:00,,0835.7,5.00,0.00,29.9,29.2,00.0,38.9,31.7,17.3,0000.6,0005.55,0013.42,0004.51
2021-09-17 17:06:00,,0835.7,4.99,0.00,29.9,29.2,00.0,38.9,31.7,17.4,0000.0,0005.51,0013.29,0004.53
2021-09-17 17:07:00,,0835.7,5.00,0.00,29.9,29.2,00.0,38.9,31.7,17.5,0000.0,0005.49,0013.60,0004.56
2021-09-17 17:08:00,,0835.7,5.01,0.00,29.9,29.3,00.0,38.9,31.7,17.3,0000.0,0005.58,0013.96,0004.59
2021-09-17 17:09:00,,0835.6,4.98,0.00,30.0,29.3,00.0,38.9,31.7,17.6,0001.3,0005.59,0014.46,0004.59
2021-09-17 17:10:00,,0835.6,5.00,0.00,30.0,29.3,00.0,39.0,31.7,17.4,0002.1,0005.61,0014.42,0004.60
2021-09-17 17:11:00,,0835.6,5.01,0.00,30.0,29.3,00.0,39.0,31.8,17.4,0001.9,0005.63,0013.73,0004.62
2021-09-17 17:12:00,,0835.6,5.00,0.00,30.0,29.3,00.0,39.0,31.7,17.3,0000.0,0005.69,0013.92,0004.64
2021-09-17 17:13:00,,0835.6,4.99,0.00,30.0,29.3,00.0,39.0,31.8,17.4,0000.7,0005.75,0014.14,0004.65
2021-09-17 17:14:00,,0835.6,5.01,0.00,30.0,29.3,00.0,39.0,31.7,17.5,0002.9,0005.77,0013.82,0004.67
2021-09-17 17:15:00,,0835.6,4.99,0.00,30.0,29.3,00.0,39.0,31.7,17.5,0003.1,0005.81,0014.03,0004.69
2021-09-17 17:16:00,,0835.6,5.01,0.00,30.0,29.3,00.0,39.0,31.7,17.4,0003.1,0005.83,0015.54,0004.72
2021-09-17 17:17:00,,0835.6,5.00,0.00,30.0,29.3,00.0,39.0,31.7,17.4,0003.1,0005.91,0016.15,0004.78
2021-09-17 17:18:00,,0835.6,5.01,0.00,30.0,29.3,00.0,39.0,31.7,17.5,0003.1,0006.01,0015.64,0004.82
2021-09-17 17:19:00,,0835.6,5.00,0.00,30.0,29.3,00.0,39.1,31.7,17.4,0003.1,0006.01,0015.89,0004.86
2021-09-17 17:20:00,,0835.6,5.00,0.00,30.0,29.3,00.0,39.1,31.7,17.3,0002.9,0006.10,0015.75,0004.92
2021-09-17 17:21:00,,0835.6,5.00,0.00,30.0,29.3,00.0,39.1,31.8,17.3,0002.8,0006.14,0015.43,0004.95
2021-09-17 17:22:00,,0835.6,4.99,0.00,30.0,29.3,00.0,39.1,31.8,17.4,0002.2,0006.16,0015.70,0004.98
2021-09-17 17:23:00,,0835.6,4.99,0.00,30.1,29.4,00.0,39.1,31.8,17.4,0002.3,0006.21,0015.73,0005.02
2021-09-17 17:24:00,,0835.6,5.00,0.00,30.1,29.4,00.0,39.1,31.8,17.5,0002.2,0006.19,0015.84,0005.05
2021-09-17 17:25:00,,0835.6,5.01,0.00,30.1,29.4,00.0,39.1,31.8,17.4,0001.5,0006.25,0016.63,0005.07
2021-09-17 17:26:00,,0835.6,5.00,0.00,30.1,29.4,00.0,39.1,31.8,17.4,0000.0,0006.25,0016.44,0005.08
2021-09-17 17:27:00,,0835.5,5.00,0.00,30.1,29.4,00.0,39.1,31.8,17.4,0000.0,0006.26,0014.99,0005.09
2021-09-17 17:28:00,,0835.6,5.00,0.00,30.1,29.4,00.0,39.1,31.8,17.6,0000.0,0006.30,0014.72,0005.07
2021-09-17 17:29:00,,0835.5,4.99,0.00,30.1,29.4,00.0,39.2,31.8,17.6,0000.0,0006.29,0014.90,0005.04
2021-09-17 17:30:00,,0835.5,5.00,0.00,30.1,29.4,00.0,39.2,31.8,17.6,0000.3,0006.27,0014.94,0005.04
2021-09-17 17:31:00,,0835.5,5.01,0.00,30.1,29.4,00.0,39.2,31.8,17.5,0000.7,0006.20,0014.69,0005.04
2021-09-17 17:32:00,,0835.5,4.99,0.00,30.1,29.4,00.0,39.2,31.8,17.6,0000.5,0006.18,0014.53,0005.04
2021-09-17 17:33:00,,0835.5,5.01,0.00,30.1,29.4,00.0,39.2,31.8,17.7,0000.6,0006.22,0014.58,0005.05
2021-09-17 17:34:00,,0835.5,4.98,0.00,30.1,29.4,00.0,39.2,31.7,17.7,0000.1,0006.22,0015.09,0005.04
2021-09-17 17:35:00,,0835.5,5.01,0.00,30.1,29.4,00.0,39.2,31.8,17.5,-000.4,0006.22,0014.58,0005.04
2021-09-17 17:36:00,,0835.4,5.00,0.00,30.1,29.4,00.0,39.2,31.7,17.5,-000.3,0006.19,0014.87,0005.06
2021-09-17 17:37:00,,0835.4,5.00,0.00,30.1,29.4,00.0,39.2,31.8,17.5,-000.3,0006.26,0014.89,0005.08
2021-09-17 17:38:00,,0835.4,5.00,0.00,30.0,29.3,00.0,39.2,31.8,17.6,-000.2,0006.25,0015.56,0005.09
2021-09-17 17:39:00,,0835.4,5.01,0.00,30.0,29.3,00.0,39.2,31.7,17.6,-000.2,0006.19,0015.78,0005.10
2021-09-17 17:40:00,,0835.4,4.99,0.00,30.0,29.3,00.0,39.2,31.7,17.5,-000.3,0006.20,0015.52,0005.13
2021-09-17 17:41:00,,0835.4,4.99,0.00,30.0,29.3,00.0,39.2,31.7,17.5,-000.2,0006.25,0015.42,0005.16
2021-09-17 17:42:00,,0835.4,5.01,0.00,30.0,29.3,00.0,39.2,31.7,17.5,-000.1,0006.30,0015.60,0005.19
2021-09-17 17:43:00,,0835.4,5.00,0.00,30.0,29.3,00.0,39.2,31.8,17.5,0000.0,0006.38,0016.48,0005.21
2021-09-17 17:44:00,,0835.4,5.00,0.00,30.1,29.4,00.0,39.2,31.9,17.5,0000.5,0006.38,0016.43,0005.22
2021-09-17 17:45:00,,0835.4,5.00,0.00,30.1,29.4,00.0,39.2,31.9,17.4,0001.1,0006.34,0015.84,0005.23
2021-09-17 17:46:00,,0835.4,5.02,0.00,30.1,29.4,00.0,39.2,31.8,17.4,0001.0,0006.40,0015.74,0005.25
2021-09-17 17:47:00,,0835.4,5.00,0.00,30.1,29.4,00.0,39.2,31.9,17.5,0000.7,0006.37,0015.13,0005.24
2021-09-17 17:48:00,,0835.3,4.99,0.00,30.1,29.5,00.0,39.2,31.9,17.7,0000.9,0006.40,0016.52,0005.23
2021-09-17 17:49:00,,0835.3,5.01,0.00,30.2,29.5,00.0,39.2,31.9,17.7,0001.4,0006.43,0017.03,0005.21
2021-09-17 17:50:00,,0835.4,4.99,0.00,30.2,29.5,00.0,39.2,32.0,17.6,0001.8,0006.44,0016.73,0005.20
2021-09-17 17:51:00,,0835.4,5.01,0.00,30.2,29.5,00.0,39.2,32.0,17.6,0002.1,0006.46,0017.13,0005.19
2021-09-17 17:52:00,,0835.4,4.99,0.00,30.2,29.5,00.0,39.3,32.0,17.5,0002.7,0006.43,0017.48,0005.18
2021-09-17 17:53:00,,0835.3,5.00,0.00,30.2,29.5,00.0,39.3,32.0,17.4,0002.5,0006.44,0018.21,0005.18
2021-09-17 17:54:00,,0835.3,5.00,0.00,30.2,29.5,00.0,39.3,31.9,17.5,0001.9,0006.38,0019.14,0005.18
2021-09-17 17:55:00,,0835.2,5.00,0.00,30.2,29.5,00.0,39.3,31.9,17.4,0001.3,0006.39,0020.02,0005.20
2021-09-17 17:56:00,,0835.2,5.01,0.00,30.2,29.5,00.0,39.3,32.0,17.6,0001.1,0006.44,0020.28,0005.21
2021-09-17 17:57:00,,0835.2,5.00,0.00,30.2,29.5,00.0,39.3,32.0,17.5,0001.4,0006.40,0020.45,0005.21
2021-09-17 17:58:00,,0835.2,5.00,0.00,30.3,29.6,00.0,39.3,32.0,17.6,0001.4,0006.41,0020.18,0005.23
2021-09-17 17:59:00,,0835.2,4.99,0.00,30.3,29.6,00.0,39.3,32.0,17.7,0001.5,0006.39,0019.66,0005.24
